Weather History for SBCT - August, 2014

Change the Weather History Date:

Sunday, August 31, 2014

  Actual Average Record
Temperature  
Mean Temperature 54 °F -  
Max Temperature 59 °F 68 °F 89 °F (1999)
Min Temperature 49 °F 50 °F 41 °F (2008)
Degree Days  
Heating Degree Days 11    
Growing Degree Days 4 (Base 50)    
Moisture  
Dew Point 55 °F    
Average Humidity 97    
Maximum Humidity 100    
Minimum Humidity 88    
Precipitation  
Precipitation 0.51 in - - ()
Sea Level Pressure  
Sea Level Pressure 30.08 in    
Wind  
Wind Speed 6 mph ()    
Max Wind Speed 20 mph    
Max Gust Speed 28 mph    
Visibility 3.3 miles    
Events Fog , Rain , Thunderstorm    
Averages and records for this station are not official NWS values.
T = Trace of Precipitation, MM = Missing Value Source: Averaged Metar Reports

Daily Weather History Graph

Daily Weather History Graph

Search for Another Location

Airport or City:

Trip Planner

Search our weather history database for the weather conditions in past years. The results will help you decide how hot, cold, wet, or windy it might be!

Date:

Astronomy

Aug. 31, 2014 Rise Set
Actual Time 6:29 AM BRT 6:04 PM BRT
Civil Twilight 6:06 AM BRT 6:27 PM BRT
Nautical Twilight 5:40 AM BRT 6:54 PM BRT
Astronomical Twilight 5:13 AM BRT 7:20 PM BRT
Moon 10:03 AM BRT (8/31) 11:27 PM BRT (8/31)
Length of Visible Light 12h 20m
Length of Day
11h 34m
Waxing Crescent, 31% of the Moon is Illuminated
Aug 31
Waxing Crescent
Sep 2
First Quarter
Sep 8
Full
Sep 15
Last Quarter
Sep 24
New

Hourly Weather History & Observations

Time (BRT) Temp. Dew Point Humidity Pressure Visibility Wind Dir Wind Speed Gust Speed Precip Events Conditions
12:00 AM 55.4 °F 53.6 °F 94% 30.12 in - NE 5.8 mph - N/A   Clear
1:00 AM 53.6 °F 51.8 °F 94% 30.12 in - NE 3.5 mph - N/A   Clear
1:55 AM 51.8 °F 51.8 °F 100% 30.09 in 1.6 mi NE 2.3 mph - N/A   Mist
2:00 AM 51.8 °F 51.8 °F 100% 30.09 in 0.2 mi NNE 3.5 mph - N/A Fog Fog
3:00 AM 51 °F 51 °F 99%  in 0 mi ENE 2.3 mph - - Fog Heavy Fog
3:00 AM 51.8 °F 51.8 °F 100% 30.06 in 0.2 mi ENE 2.3 mph - N/A Fog Fog
3:30 AM 50.0 °F 50.0 °F 100% 30.06 in 0.5 mi East 2.3 mph - N/A Fog Fog
3:40 AM 50.0 °F 50.0 °F 100% 30.06 in 1.4 mi East 2.3 mph - N/A   Mist
4:00 AM 50.0 °F 50.0 °F 100% 30.04 in 2.5 mi East 2.3 mph - N/A   Mist
5:00 AM 50.0 °F 50.0 °F 100% 30.04 in 2.8 mi Calm Calm - N/A   Mist
6:00 AM 50.0 °F 50.0 °F 100% 30.01 in 5.0 mi NE 5.8 mph - N/A   Unknown
7:00 AM 50.0 °F 50.0 °F 100% 30.01 in - NNE 4.6 mph - N/A   Clear
8:00 AM 55.4 °F 53.6 °F 94% 30.01 in - NE 6.9 mph - N/A   Clear
9:00 AM 56 °F 54 °F 93%  in 12 mi NE 3.5 mph - -   Partly Cloudy
9:00 AM 57.2 °F 55.4 °F 94% 30.01 in - NE 3.5 mph - N/A   Clear
9:47 AM 57.2 °F 55.4 °F 94% 30.06 in 6.2 mi SSW 16.1 mph 27.6 mph N/A   Mostly Cloudy
10:00 AM 59.0 °F 55.4 °F 88% 30.09 in 6.2 mi SSW 16.1 mph 27.6 mph N/A   Mostly Cloudy
10:40 AM 57.2 °F 57.2 °F 100% 30.09 in 2.8 mi South 13.8 mph - N/A Rain , Thunderstorm Light Thunderstorms and Rain
11:00 AM 57.2 °F 57.2 °F 100% 30.09 in 2.8 mi SSW 11.5 mph - N/A Rain , Thunderstorm Light Thunderstorms and Rain
11:23 AM 57.2 °F 57.2 °F 100% 30.15 in 1.6 mi WSW 19.6 mph - N/A Rain , Thunderstorm Thunderstorms and Rain
11:30 AM 57.2 °F 57.2 °F 100% 30.15 in 1.2 mi WSW 16.1 mph - N/A Rain , Thunderstorm Thunderstorms and Rain
12:00 PM 57.2 °F 57.2 °F 100% 30.12 in 1.9 mi WSW 8.1 mph - N/A Rain , Thunderstorm Light Thunderstorms and Rain
1:00 PM 59.0 °F 59.0 °F 100% 30.12 in 1.9 mi West 8.1 mph - N/A Rain , Thunderstorm Light Thunderstorms and Rain
1:15 PM 59.0 °F 59.0 °F 100% 30.12 in 3.1 mi West 8.1 mph - N/A Rain Light Rain
2:00 PM 59.0 °F 59.0 °F 100% 30.15 in 3.1 mi West 12.7 mph - N/A Rain Light Rain
3:00 PM 59 °F 59 °F 99%  in 2 mi West 8.1 mph - - Rain Light Rain
3:00 PM 59.0 °F 59.0 °F 100% - 2.5 mi West 8.1 mph - N/A Rain Light Rain
4:00 PM 59.0 °F 57.2 °F 94% - 2.5 mi West 6.9 mph - N/A Rain Light Rain
5:00 PM 57.2 °F 57.2 °F 100% 30.09 in 2.5 mi West 5.8 mph - N/A Rain Light Rain
6:00 PM 57.2 °F 57.2 °F 100% 30.12 in 2.5 mi WNW 4.6 mph - N/A Rain Light Rain
7:00 PM 57.2 °F 55.4 °F 94% 30.12 in 2.5 mi WNW 8.1 mph - N/A Rain Light Rain
8:00 PM 57.2 °F 55.4 °F 94% 30.09 in 5.0 mi WNW 4.6 mph - N/A   Overcast
9:00 PM 57 °F 55 °F 89%  in 7 mi NE 8.1 mph - -   Mist
9:00 PM 57.2 °F 55.4 °F 94% 30.04 in 6.2 mi NE 8.1 mph - N/A   Scattered Clouds
10:00 PM 57.2 °F 55.4 °F 94% 30.01 in 6.2 mi North 6.9 mph - N/A   Scattered Clouds
11:00 PM 57.2 °F 53.6 °F 88% 30.04 in 6.2 mi SSW 4.6 mph - N/A   Partly Cloudy